Temp
66 67 67 67 56 51 48 55 65 66 70 77 79 78 73 74 72 63 75 78 76 76 78 78 79 79 79 79 79 78 78 78 78 79 79 79 79 79 79 79 79 80 80 80 80 80 80 80 80
65 69 67 59 49 42 47 57 61 69 74 78 77 79 75 72 74 70 71 77 78 77 77 77 79 79 79 79 78 78 78 78 78 79 79 79 79 79 79 79 79 80 80 80 80 80 79 79 79
65 66 60 54 46 45 49 59 68 69 76 76 76 81 78 71 74 72 74 77 77 77 78 77 79 79 79 79 78 78 78 78 79 79 79 78 78 78 78 78 79 80 80 80 80 79 79 79 79
63 60 57 48 46 50 57 62 66 68 74 77 78 74 78 78 77 75 77 77 75 77 76 78 78 78 79 79 78 78 78 78 79 79 78 78 78 78 77 78 78 79 80 80 79 79 79 79 79
57 52 44 39 47 53 61 66 64 64 69 74 77 73 71 74 76 76 75 77 75 77 74 77 78 78 79 79 78 78 78 78 78 78 79 78 78 78 77 78 78 79 79 79 79 79 78 78 78
52 49 38 45 44 57 63 66 66 66 69 73 72 70 69 75 73 74 75 75 77 78 76 75 78 78 78 78 78 78 77 77 78 78 78 78 77 77 78 78 78 79 79 79 79 78 78 77 77
47 42 39 39 54 52 60 65 65 65 68 71 74 67 69 71 74 75 75 76 77 79 78 74 75 77 78 78 77 77 77 77 77 77 77 77 77 77 77 77 78 78 78 78 78 78 77 77 77
51 46 39 43 48 51 63 65 68 70 72 77 77 65 65 72 75 74 73 73 75 78 79 78 73 74 74 75 78 77 77 77 77 77 77 77 77 77 77 77 77 78 78 78 78 77 77 77 76
53 41 38 44 48 50 57 62 71 75 72 72 75 73 75 75 74 71 71 73 74 77 77 77 75 73 72 73 76 77 78 77 77 77 77 75 73 74 75 76 77 77 78 78 78 77 77 77 76
50 39 43 51 55 54 58 61 70 69 69 69 71 75 74 73 71 69 68 69 70 73 76 78 77 74 72 76 73 72 74 73 73 73 73 72 71 71 74 75 77 77 77 77 77 77 77 77 74
48 44 52 54 58 58 58 60 66 65 62 69 69 71 71 71 70 70 70 70 70 72 74 77 75 73 72 72 73 71 71 71 71 72 71 70 71 70 71 71 72 72 75 74 75 74 74 73 73
43 51 54 56 58 55 56 64 61 65 68 73 72 74 72 71 70 71 71 71 70 70 72 75 75 74 75 72 75 72 70 70 70 70 70 69 68 68 69 70 71 71 72 72 72 73 73 73 74
44 50 56 60 57 56 60 60 60 63 70 74 74 74 73 72 72 73 73 73 70 68 72 74 76 74 72 72 73 69 69 69 69 69 70 69 68 68 70 71 72 72 73 72 72 73 73 74 74
49 53 55 55 54 55 54 58 59 64 70 72 73 70 72 72 72 71 72 71 71 71 70 71 71 70 69 68 68 68 68 68 68 68 69 70 69 69 70 72 72 73 74 74 74 74 73 72 73
52 45 50 57 56 54 57 55 57 66 68 69 69 69 69 69 73 71 72 72 72 70 69 68 68 68 68 67 67 67 68 69 68 68 70 71 70 71 72 73 73 74 74 75 74 72 69 67 67
46 46 38 49 57 57 56 49 61 65 65 66 68 68 67 67 68 69 71 71 73 71 69 69 74 69 67 67 67 68 69 70 70 70 71 73 73 73 74 73 73 74 73 72 70 68 63 63 62
39 34 39 46 57 56 56 45 60 64 64 65 66 65 66 65 65 67 69 69 71 69 69 70 71 70 69 69 70 71 72 72 73 73 73 74 76 76 74 73 72 70 69 65 67 65 62 61 60
34 36 42 43 49 54 53 50 55 59 62 64 65 64 64 64 64 66 67 68 69 69 69 69 70 70 70 71 71 71 71 71 71 71 71 72 74 76 73 70 66 65 64 63 62 62 61 60 59
44 43 42 48 54 50 45 53 56 58 58 61 61 61 62 63 65 67 67 68 68 68 68 67 67 67 68 68 69 68 68 71 71 70 72 75 73 72 68 65 63 63 62 61 63 61 60 60 60
44 40 41 48 54 51 48 50 57 56 57 60 61 59 61 61 63 65 66 67 68 68 68 67 67 67 67 68 68 66 64 66 67 68 68 69 68 67 65 64 63 63 60 61 60 61 59 59 59
44 40 41 44 49 50 49 45 51 54 54 57 59 59 61 63 63 64 65 66 66 67 68 68 67 67 67 69 66 64 63 65 66 66 65 65 65 65 65 64 63 62 61 60 60 60 60 57 58
38 49 49 48 43 39 47 35 44 50 52 54 57 57 59 62 65 64 65 64 65 66 66 66 67 66 67 68 67 66 65 62 65 63 64 64 65 64 65 63 63 62 61 60 60 61 58 58 56
44 52 49 48 43 40 41 39 43 47 47 52 54 55 57 61 63 63 64 66 66 66 65 65 66 66 66 66 66 66 64 64 63 63 62 62 63 64 65 64 63 61 61 60 59 58 57 57 56
55 48 45 42 39 33 40 39 40 44 52 49 53 55 57 59 60 62 63 63 63 63 63 62 63 64 66 66 67 66 66 65 61 61 61 61 61 62 62 64 62 61 60 60 59 58 57 56 56
47 40 30 30 30 31 41 40 43 50 55 57 56 56 57 59 60 60 61 61 61 61 61 62 63 63 65 65 68 67 64 63 61 61 60 60 59 59 61 61 60 60 59 58 58 56 56 54 54
43 41 30 28 27 31 41 37 46 53 57 58 59 58 57 58 59 60 60 59 60 61 61 63 63 63 66 65 66 65 64 62 61 61 61 60 59 60 61 60 59 58 58 57 55 54 54 52 52
44 39 44 35 35 34 37 43 53 56 56 54 55 57 57 57 57 58 58 59 60 61 61 63 63 64 66 67 64 63 63 62 61 61 61 60 60 61 59 58 56 56 56 54 53 52 51 50 50
47 51 39 35 30 30 34 37 42 48 52 54 53 55 57 57 57 57 59 60 61 60 62 62 63 63 65 65 64 63 63 63 61 61 59 59 59 59 57 56 55 54 54 53 51 50 50 49 49
42 39 40 38 35 31 30 36 48 48 49 50 53 56 57 57 58 58 59 61 62 62 62 61 64 64 64 64 63 62 61 62 61 59 58 57 57 57 57 56 55 53 52 51 50 50 49 48 48
50 45 41 34 34 36 35 38 52 51 51 50 49 56 56 57 57 58 59 61 63 64 63 63 64 63 63 63 62 61 61 60 59 57 56 56 55 56 55 55 54 52 51 50 49 48 48 47 46
MSLP
1010.92 1010.67 1010.78 1010.99 1012.23 1012.32 1011.18 1009.46 1007.60 1005.97 1004.96 1004.12 1003.88 1004.13 1004.70 1005.06 1005.86 1006.60 1005.84 1006.10 1006.30 1006.83 1007.68 1008.59 1009.29 1009.64 1010.00 1010.26 1010.90 1011.22 1011.46 1011.66 1012.08 1012.47 1012.70 1012.96 1013.18 1013.35 1013.53 1013.77 1013.94 1014.04 1014.23 1014.41 1014.58 1014.75 1014.89 1014.95 1015.01
1010.94 1010.54 1010.91 1011.85 1012.65 1012.56 1010.69 1008.82 1007.32 1005.86 1004.77 1004.03 1003.97 1004.03 1004.53 1005.10 1005.68 1006.23 1006.38 1006.82 1006.99 1007.28 1007.72 1008.66 1009.34 1009.62 1010.03 1010.46 1011.08 1011.56 1011.83 1012.02 1012.36 1012.77 1013.00 1013.18 1013.36 1013.58 1013.82 1014.01 1014.17 1014.26 1014.42 1014.55 1014.70 1014.74 1014.85 1015.02 1015.06
1011.05 1010.91 1011.58 1012.18 1012.42 1011.25 1009.89 1007.97 1006.70 1006.01 1005.00 1004.56 1003.94 1003.72 1004.28 1005.12 1005.72 1006.14 1006.16 1006.83 1007.20 1007.70 1008.38 1008.96 1009.61 1009.72 1010.07 1010.61 1011.29 1011.76 1012.06 1012.32 1012.69 1012.97 1013.27 1013.54 1013.77 1013.98 1014.16 1014.34 1014.44 1014.54 1014.64 1014.76 1014.82 1014.95 1014.95 1015.03 1015.11
1011.32 1011.70 1012.52 1012.26 1011.36 1009.98 1008.67 1007.13 1006.56 1005.80 1005.03 1004.58 1004.12 1004.15 1004.81 1005.32 1005.51 1006.06 1006.28 1006.90 1007.34 1008.10 1008.59 1009.14 1009.69 1009.84 1010.18 1010.62 1011.32 1011.96 1012.30 1012.57 1012.93 1013.15 1013.30 1013.52 1013.78 1014.01 1014.24 1014.43 1014.55 1014.60 1014.64 1014.79 1014.93 1015.08 1015.14 1015.14 1015.14
1011.68 1012.30 1012.82 1012.40 1010.74 1009.28 1008.08 1006.68 1006.14 1005.98 1005.43 1004.81 1004.61 1004.56 1005.26 1005.90 1005.95 1006.22 1006.70 1007.05 1007.49 1008.42 1009.08 1009.42 1010.00 1010.10 1010.45 1010.81 1011.35 1011.98 1012.33 1012.62 1012.95 1013.23 1013.50 1013.72 1013.96 1014.24 1014.50 1014.62 1014.76 1014.77 1014.76 1014.79 1014.97 1015.09 1015.11 1015.08 1015.06
1012.33 1012.65 1012.73 1011.66 1010.44 1008.84 1007.59 1006.53 1006.02 1005.48 1005.13 1004.82 1004.92 1005.24 1005.76 1006.14 1006.50 1006.80 1006.76 1007.12 1007.65 1008.40 1009.09 1009.68 1010.19 1010.53 1010.71 1011.04 1011.43 1011.91 1012.26 1012.74 1013.11 1013.45 1013.77 1013.98 1014.27 1014.43 1014.50 1014.48 1014.58 1014.71 1014.76 1014.83 1014.96 1015.07 1015.09 1015.05 1015.00
1012.22 1012.76 1011.91 1010.92 1009.88 1008.86 1007.15 1006.26 1005.86 1005.21 1004.75 1004.56 1004.70 1005.38 1005.99 1006.18 1006.62 1006.97 1007.02 1007.34 1007.76 1008.34 1009.25 1010.04 1010.48 1010.86 1011.13 1011.30 1011.61 1012.14 1012.50 1012.84 1013.29 1013.66 1013.99 1014.22 1014.31 1014.47 1014.65 1014.67 1014.79 1014.94 1015.02 1015.06 1015.08 1015.15 1015.08 1014.97 1014.93
1011.94 1012.22 1011.58 1010.54 1009.42 1007.88 1006.53 1005.92 1005.10 1004.98 1004.26 1004.12 1004.21 1005.15 1005.34 1005.40 1006.45 1007.16 1007.56 1007.66 1007.96 1008.45 1009.24 1010.09 1010.61 1011.02 1011.38 1011.45 1011.78 1012.25 1012.67 1013.09 1013.51 1013.84 1013.93 1014.15 1014.33 1014.50 1014.68 1014.75 1014.86 1014.97 1014.94 1014.92 1014.86 1014.85 1014.81 1014.80 1014.61
1011.50 1011.91 1010.92 1009.83 1009.00 1007.49 1006.08 1005.58 1004.61 1003.96 1004.07 1004.17 1004.27 1004.23 1004.38 1005.09 1006.40 1007.31 1007.82 1008.16 1008.22 1008.55 1009.10 1009.98 1010.40 1010.80 1011.37 1011.64 1011.88 1012.40 1013.03 1013.35 1013.65 1013.97 1014.04 1014.22 1014.52 1014.76 1014.96 1014.91 1014.78 1014.86 1014.82 1014.89 1014.91 1014.86 1014.78 1014.71 1014.58
1011.10 1010.97 1010.41 1009.28 1008.13 1007.00 1006.11 1005.46 1004.55 1004.23 1004.08 1004.01 1004.12 1004.27 1004.68 1005.42 1006.28 1006.95 1007.37 1007.63 1007.91 1008.25 1008.85 1009.51 1010.18 1010.72 1011.20 1011.59 1012.15 1012.67 1013.14 1013.61 1013.89 1014.06 1014.35 1014.60 1014.78 1014.96 1015.05 1014.96 1014.90 1014.91 1014.85 1014.85 1014.84 1014.94 1015.02 1014.98 1014.85
1010.26 1010.25 1009.47 1008.64 1007.55 1006.79 1006.27 1005.42 1004.69 1004.33 1004.20 1003.78 1004.01 1004.35 1005.18 1005.75 1006.37 1007.05 1007.40 1007.63 1007.83 1007.92 1008.53 1009.29 1010.21 1010.61 1011.13 1011.63 1012.28 1012.92 1013.30 1013.67 1014.14 1014.26 1014.56 1014.78 1014.90 1014.95 1015.03 1015.03 1014.85 1014.86 1014.81 1014.75 1014.84 1014.94 1014.93 1014.74 1014.66
1010.38 1009.74 1009.10 1008.47 1007.62 1007.13 1006.61 1005.63 1005.02 1004.52 1003.77 1003.40 1003.72 1004.46 1004.91 1005.38 1005.91 1006.58 1007.08 1007.76 1008.26 1008.90 1009.02 1009.40 1010.27 1011.00 1011.37 1011.84 1012.24 1012.96 1013.31 1013.59 1013.98 1014.16 1014.44 1014.77 1015.10 1015.24 1015.20 1015.10 1014.93 1014.82 1014.74 1014.70 1014.86 1014.83 1014.87 1014.81 1014.62
1010.34 1009.52 1008.82 1008.19 1007.90 1007.56 1007.20 1006.52 1005.56 1004.62 1003.86 1003.50 1003.44 1004.08 1004.69 1005.24 1005.83 1006.54 1007.41 1007.78 1008.34 1009.16 1009.62 1010.08 1010.47 1011.28 1011.94 1012.29 1012.62 1013.18 1013.54 1013.77 1013.96 1014.22 1014.56 1014.92 1015.17 1015.34 1015.28 1015.19 1014.99 1014.70 1014.64 1014.54 1014.51 1014.61 1014.74 1014.64 1014.60
1009.87 1009.39 1008.98 1008.52 1007.93 1007.57 1007.41 1006.85 1006.17 1004.04 1003.68 1003.62 1003.40 1004.18 1004.59 1005.07 1005.97 1006.80 1007.14 1007.77 1008.31 1009.18 1009.81 1010.34 1010.87 1011.38 1011.92 1012.24 1012.73 1013.34 1013.73 1014.18 1014.52 1014.65 1014.71 1014.88 1015.17 1015.34 1015.35 1015.28 1015.06 1015.04 1014.64 1014.23 1014.17 1014.35 1014.48 1014.74 1014.68
1009.98 1009.58 1009.05 1008.38 1007.86 1007.80 1007.21 1006.88 1004.65 1004.29 1003.95 1003.81 1003.68 1004.66 1004.74 1004.99 1005.50 1006.26 1006.84 1007.35 1007.72 1008.74 1009.63 1010.39 1010.82 1011.23 1011.56 1011.95 1012.71 1013.30 1013.71 1014.10 1014.42 1014.56 1014.68 1014.90 1015.12 1015.08 1015.15 1015.09 1015.00 1014.83 1014.89 1014.76 1014.48 1014.49 1014.82 1014.75 1014.80
1010.01 1009.58 1009.16 1007.83 1007.54 1007.33 1007.36 1004.59 1004.60 1004.20 1004.38 1004.22 1003.81 1004.69 1005.07 1005.36 1005.42 1005.80 1006.32 1006.98 1007.35 1008.29 1009.25 1009.85 1010.56 1011.02 1011.72 1012.00 1012.52 1012.82 1013.30 1013.83 1014.01 1014.26 1014.55 1014.60 1014.78 1014.77 1014.91 1015.11 1015.22 1015.15 1015.23 1015.28 1015.15 1015.12 1015.20 1015.24 1015.10
1009.75 1009.19 1008.39 1007.43 1006.48 1006.97 1006.66 1005.37 1004.42 1003.78 1004.06 1004.22 1003.99 1004.69 1005.11 1005.72 1005.88 1005.92 1006.26 1006.76 1007.29 1008.18 1008.62 1009.44 1009.90 1010.79 1011.52 1012.12 1012.58 1012.83 1012.98 1013.32 1013.82 1014.07 1014.34 1014.37 1014.54 1014.75 1014.72 1014.90 1015.31 1015.51 1015.67 1015.75 1015.79 1015.81 1015.74 1015.74 1015.56
1009.57 1008.78 1007.80 1007.02 1006.18 1006.26 1005.89 1005.58 1004.54 1003.84 1003.91 1004.01 1004.02 1004.77 1005.16 1005.72 1006.06 1006.24 1006.32 1006.79 1007.54 1008.22 1008.75 1009.18 1009.81 1010.58 1011.26 1011.88 1012.20 1012.80 1013.33 1013.85 1013.74 1013.70 1014.31 1014.72 1014.52 1014.44 1014.50 1014.99 1015.25 1015.96 1015.42 1016.12 1016.22 1016.31 1016.55 1016.17 1015.84
1008.92 1008.15 1007.30 1006.74 1005.64 1005.78 1005.89 1006.06 1004.84 1004.18 1004.21 1004.24 1004.24 1004.95 1005.46 1005.89 1006.14 1006.48 1006.83 1007.13 1007.70 1008.30 1008.70 1009.34 1009.74 1010.26 1010.70 1011.53 1012.09 1012.78 1013.67 1013.87 1014.06 1013.81 1014.11 1014.16 1014.59 1014.65 1015.19 1015.81 1015.82 1016.62 1016.34 1016.70 1016.34 1016.84 1016.82 1016.72 1016.09
1008.60 1008.20 1006.92 1005.96 1005.39 1005.60 1005.83 1005.69 1005.36 1004.57 1004.27 1004.04 1004.05 1004.86 1005.60 1006.09 1006.33 1006.63 1006.91 1007.28 1007.45 1007.72 1008.19 1008.95 1009.35 1009.64 1009.95 1010.60 1011.26 1011.89 1013.22 1013.84 1014.30 1014.85 1014.48 1014.66 1015.30 1015.36 1016.11 1016.72 1016.51 1017.07 1016.34 1016.66 1016.59 1016.97 1016.86 1017.04 1016.72
1007.99 1007.63 1006.96 1006.27 1005.54 1005.45 1005.61 1005.64 1005.28 1004.70 1004.57 1004.14 1004.00 1004.42 1005.08 1005.24 1005.90 1006.46 1006.71 1007.07 1007.42 1007.63 1007.82 1008.26 1008.42 1008.50 1008.87 1009.27 1010.04 1010.27 1011.86 1012.37 1013.49 1013.40 1015.54 1015.90 1015.76 1015.94 1016.69 1016.76 1016.48 1016.33 1017.04 1017.08 1017.32 1017.08 1017.15 1017.26 1017.17
1007.56 1006.98 1006.84 1006.40 1005.94 1005.81 1005.32 1005.88 1005.32 1004.88 1005.02 1004.68 1004.20 1004.22 1004.97 1005.34 1005.74 1006.04 1006.46 1006.98 1007.04 1007.54 1007.92 1008.18 1008.27 1008.82 1009.04 1009.07 1008.73 1009.68 1009.93 1010.65 1012.64 1013.89 1015.41 1015.64 1015.39 1015.96 1016.59 1015.92 1016.50 1016.99 1017.17 1017.30 1017.02 1017.15 1017.00 1017.21 1017.75
1006.56 1006.30 1006.50 1006.27 1006.14 1005.94 1005.90 1005.93 1005.11 1005.10 1005.33 1004.68 1004.29 1004.21 1004.31 1004.88 1005.24 1005.66 1005.99 1006.38 1006.88 1007.47 1007.88 1008.35 1008.51 1009.04 1009.62 1009.76 1010.18 1010.51 1011.18 1011.28 1012.70 1013.90 1015.96 1015.70 1015.90 1016.18 1016.56 1016.93 1017.43 1017.02 1017.02 1017.02 1017.20 1017.20 1017.17 1017.29 1017.95
1005.70 1006.15 1006.42 1006.68 1006.86 1006.77 1005.94 1005.63 1004.96 1004.35 1003.39 1004.03 1004.08 1004.44 1004.55 1004.85 1005.42 1005.98 1006.50 1007.00 1007.42 1007.88 1008.25 1008.83 1009.21 1009.44 1009.63 1010.14 1010.20 1010.58 1011.12 1012.09 1013.39 1015.08 1015.56 1016.28 1016.03 1016.97 1017.65 1017.54 1017.22 1016.72 1016.98 1017.30 1017.24 1017.59 1017.68 1017.79 1018.10
1005.60 1006.21 1007.11 1007.73 1007.72 1007.13 1006.07 1005.51 1003.84 1003.07 1003.03 1003.13 1003.55 1003.93 1004.48 1004.86 1005.30 1005.78 1006.32 1006.96 1007.53 1008.21 1008.78 1009.07 1009.32 1009.50 1009.55 1009.59 1009.75 1010.51 1011.46 1012.41 1013.00 1014.40 1015.46 1016.25 1016.67 1017.70 1018.16 1017.22 1016.93 1017.22 1017.17 1017.32 1017.70 1017.86 1017.91 1018.18 1018.78
1005.48 1006.10 1006.52 1007.08 1007.49 1007.23 1006.30 1005.24 1003.28 1002.59 1002.30 1002.60 1002.89 1003.12 1004.21 1004.88 1005.19 1005.50 1006.31 1007.01 1007.57 1007.92 1008.24 1008.57 1008.76 1008.80 1008.94 1009.44 1010.04 1010.77 1011.66 1012.39 1013.54 1014.30 1015.69 1016.80 1017.03 1018.02 1017.69 1016.91 1016.96 1017.27 1017.59 1017.82 1017.74 1017.99 1018.25 1018.68 1019.22
1005.15 1005.65 1005.98 1006.83 1007.16 1006.81 1006.24 1004.89 1003.39 1002.69 1002.78 1003.04 1003.27 1003.60 1003.96 1004.43 1004.86 1005.45 1006.07 1006.44 1006.92 1007.45 1007.84 1008.26 1008.72 1008.97 1009.26 1009.70 1010.52 1011.15 1011.97 1012.76 1013.22 1013.88 1014.87 1015.88 1017.08 1017.60 1017.20 1017.36 1017.62 1017.78 1017.66 1017.60 1018.08 1018.50 1018.81 1019.23 1019.50
1004.42 1005.01 1006.10 1006.76 1007.28 1007.13 1006.49 1005.44 1004.36 1003.91 1003.54 1003.58 1003.76 1003.86 1003.88 1004.25 1004.86 1005.59 1006.10 1006.39 1006.72 1007.20 1007.66 1008.18 1008.76 1009.34 1009.72 1009.88 1010.75 1011.27 1012.02 1012.87 1013.47 1014.46 1015.11 1016.25 1016.78 1017.02 1017.45 1017.75 1017.88 1017.87 1017.94 1018.13 1018.34 1018.57 1019.02 1019.40 1019.49
1004.62 1005.19 1006.03 1006.60 1007.17 1006.86 1006.63 1005.90 1004.71 1004.45 1004.68 1004.38 1004.06 1003.45 1003.63 1003.85 1004.24 1005.04 1005.56 1006.09 1006.56 1007.11 1007.78 1008.38 1008.96 1009.68 1010.01 1010.06 1011.15 1011.36 1012.15 1012.99 1013.68 1014.25 1015.14 1015.69 1016.34 1017.16 1017.62 1018.05 1018.39 1018.35 1018.32 1018.68 1018.28 1018.96 1019.29 1019.43 1019.52
1003.72 1004.60 1005.46 1006.35 1007.24 1007.06 1006.73 1005.78 1004.90 1004.51 1004.33 1004.68 1004.39 1003.99 1003.78 1003.64 1004.21 1004.79 1005.36 1006.04 1006.78 1007.29 1007.90 1008.42 1008.94 1009.64 1010.11 1010.58 1010.96 1011.50 1011.72 1012.93 1013.50 1014.52 1015.47 1016.36 1016.87 1017.57 1018.09 1018.62 1018.58 1018.60 1018.53 1018.40 1018.72 1019.22 1019.79 1019.81 1019.56
Wind_Speed
6 5 1 4 3 4 4 7 3 4 1 3 6 2 4 2 5 5 2 5 16 18 15 16 18 19 19 20 18 17 16 17 16 16 16 16 15 15 14 13 12 12 11 10 8 6 5 4 5
3 3 4 3 5 2 6 5 8 8 3 7 2 2 3 4 2 4 4 6 14 15 14 13 18 19 19 20 18 16 16 16 15 15 15 14 14 14 13 11 10 11 9 8 6 4 3 2 2
3 2 5 5 5 9 7 6 9 3 7 4 3 2 2 3 3 7 6 12 13 13 11 11 17 18 19 20 18 16 15 15 14 14 13 13 12 11 10 9 8 9 7 6 4 2 0 2 4
1 4 5 4 10 7 7 5 6 2 2 3 4 3 5 6 4 6 13 13 13 13 9 13 16 17 19 19 18 15 14 14 13 13 13 12 12 11 9 8 7 7 6 4 3 1 3 4 6
4 2 3 4 10 4 6 6 2 2 2 3 4 3 3 3 9 15 13 13 14 13 6 11 14 16 17 18 18 15 14 13 13 12 12 11 10 9 7 7 6 6 5 4 3 3 4 5 6
1 3 2 13 7 6 5 6 4 3 4 5 3 2 0 9 10 12 15 14 13 14 10 7 13 13 15 17 17 15 14 12 11 11 10 9 8 8 8 7 6 5 5 4 4 4 5 6 7
5 4 6 3 18 6 5 3 5 4 5 7 7 4 1 7 9 11 12 12 13 14 11 5 6 8 12 15 15 13 12 12 10 9 8 8 8 7 6 6 5 4 4 4 5 6 6 7 8
5 4 5 6 7 10 4 6 4 9 13 0 7 6 7 7 15 11 10 12 12 13 12 11 6 5 5 7 14 13 12 11 10 9 9 8 8 7 6 5 4 4 5 5 6 6 7 8 8
5 1 6 7 8 5 3 5 5 2 4 1 3 3 1 20 16 13 13 13 11 12 12 11 9 7 5 5 9 10 12 11 10 9 8 6 3 3 3 4 5 6 6 7 8 8 9 9 9
6 5 5 6 6 6 4 5 2 2 3 3 2 4 13 18 17 17 17 17 15 17 17 14 11 10 8 6 5 5 5 3 3 4 4 2 2 2 3 4 6 7 8 9 9 9 10 9 5
6 5 6 3 5 4 3 3 2 3 4 6 4 5 15 16 14 14 13 11 11 14 11 15 13 8 8 6 5 2 2 3 2 4 3 2 2 2 2 2 2 2 5 3 4 4 3 5 4
3 7 4 4 1 2 3 7 3 5 6 4 2 3 13 15 16 14 13 12 10 9 11 12 11 7 7 4 6 5 4 3 3 4 5 3 1 3 3 2 3 3 2 3 2 2 4 4 4
2 2 6 12 7 6 4 9 6 9 9 9 10 7 16 14 13 9 8 9 9 8 8 12 13 9 7 6 5 3 2 2 3 3 3 3 3 3 3 3 3 3 2 2 2 2 2 4 6
2 10 13 4 5 4 2 7 3 7 5 9 7 2 9 11 10 8 9 9 9 8 7 9 11 9 6 5 5 3 3 1 1 1 3 4 3 3 3 3 3 3 2 1 1 2 3 4 4
5 2 3 16 8 6 5 10 22 9 7 10 8 5 8 9 13 11 9 11 13 9 9 9 9 8 9 8 5 4 3 3 3 3 4 5 4 4 3 2 1 0 1 3 3 5 4 4 5
7 7 4 6 15 8 5 20 12 9 7 11 10 7 9 4 8 7 9 11 12 12 11 10 9 8 6 5 4 4 4 4 4 3 3 5 5 5 2 1 1 2 3 3 4 4 4 4 4
2 5 7 4 16 10 16 1 8 8 10 10 9 8 9 7 5 7 11 10 12 13 15 11 10 9 8 6 3 2 3 4 1 1 3 5 4 4 3 3 2 4 3 4 3 5 4 4 6
3 3 8 8 8 15 16 8 5 4 8 11 9 9 10 10 6 6 11 12 11 11 11 11 10 11 9 6 4 4 3 1 1 2 3 5 4 5 5 4 6 3 4 4 4 5 4 2 3
5 3 8 9 7 7 3 14 14 4 5 8 7 8 11 11 8 10 10 12 13 12 14 13 13 11 10 4 4 4 4 2 3 4 8 5 4 4 5 5 5 6 5 3 3 2 5 6 5
4 2 5 3 5 6 8 9 16 4 6 8 10 8 12 8 10 12 14 12 13 16 16 13 14 13 11 9 7 5 5 4 3 5 7 6 6 9 8 4 6 3 3 4 6 1 2 2 5
6 4 2 2 2 3 7 2 6 2 1 4 5 7 11 19 17 14 16 13 8 14 16 15 15 16 14 11 9 8 7 3 1 7 4 5 8 8 6 5 5 4 1 4 3 3 3 3 3
4 6 6 6 1 6 3 4 5 5 3 5 8 7 14 14 13 13 15 11 11 11 7 6 9 8 5 7 8 8 4 7 3 6 3 6 6 9 7 7 4 4 3 4 3 2 3 3 4
7 5 7 6 3 4 1 5 6 5 5 9 10 8 7 13 16 16 15 13 8 7 3 3 4 7 5 6 7 5 2 5 7 8 7 10 7 3 3 3 5 4 3 4 5 4 4 3 2
5 2 3 4 3 2 5 5 4 9 12 2 4 4 6 7 8 7 5 5 4 3 3 5 6 5 6 7 6 9 8 8 10 9 7 4 6 4 3 6 4 4 5 3 4 5 5 5 4
4 4 2 2 1 5 4 2 9 4 6 11 12 10 9 8 8 8 10 8 7 7 6 5 6 6 6 7 7 11 13 15 15 12 8 6 5 2 5 3 5 3 3 5 4 5 6 6 4
5 7 5 6 6 4 3 5 7 5 5 6 8 3 9 8 7 9 6 7 7 7 8 7 6 4 5 7 7 11 14 10 11 13 10 6 3 4 4 4 6 6 4 4 6 5 6 6 4
4 4 3 5 2 4 3 4 8 5 5 4 7 6 8 9 9 7 6 7 7 7 8 8 6 6 7 8 10 12 12 13 14 15 12 8 6 4 5 5 6 4 5 7 7 6 6 5 3
5 4 1 2 4 4 0 2 3 4 3 6 7 9 8 6 8 9 8 7 6 5 6 6 8 9 10 11 11 10 11 10 13 11 11 7 5 6 6 6 5 6 7 7 6 6 5 5 4
2 2 5 4 2 4 3 2 4 4 3 8 8 9 11 10 10 10 10 7 6 6 6 6 9 11 9 11 10 12 11 11 11 9 8 9 8 7 6 5 5 6 8 6 7 6 7 6 5
7 6 5 5 2 3 3 4 5 4 4 2 8 9 7 7 5 7 10 10 9 8 9 10 12 12 10 10 10 10 13 12 13 12 10 8 8 6 5 5 6 7 7 7 7 7 5 6 6
Wind_Direction
313 299 182 42 50 60 241 249 268 280 227 218 107 169 196 182 204 208 31 151 135 140 145 145 151 146 139 130 131 132 130 126 127 130 130 133 131 132 130 131 133 132 130 131 130 122 106 90 76
310 315 49 87 118 173 247 237 226 238 352 336 243 222 166 240 65 109 85 139 138 135 141 147 151 145 138 132 135 133 133 129 129 130 132 131 131 131 135 133 133 136 136 135 133 133 113 63 33
298 18 103 148 179 210 218 219 246 244 279 262 259 192 62 304 62 152 134 144 130 132 138 151 152 143 139 135 135 137 136 132 132 130 128 128 129 131 132 131 136 140 140 141 145 152 66 329 345
205 21 28 145 220 245 209 210 174 168 330 278 287 110 83 356 164 132 130 133 121 140 132 153 152 145 142 139 137 140 138 135 135 135 134 135 139 140 137 137 141 152 153 156 164 232 301 320 329
39 58 150 203 240 233 234 272 153 181 286 294 298 230 108 44 98 126 129 128 128 139 115 141 152 148 145 140 139 144 145 143 143 144 141 140 143 140 139 145 159 167 172 183 214 253 284 304 315
78 108 152 211 228 228 245 235 290 227 213 273 204 124 323 130 144 150 139 134 133 146 128 138 155 154 147 143 144 151 150 148 146 145 144 145 146 150 158 165 176 185 199 221 245 267 288 299 309
152 121 210 197 221 255 214 194 229 272 275 267 140 143 268 178 161 153 138 130 136 142 140 112 133 156 148 143 146 152 152 153 150 150 147 153 162 164 168 178 191 208 231 257 276 288 295 301 309
128 131 185 215 187 244 227 193 205 201 260 174 142 194 223 180 152 134 126 124 133 141 145 161 127 125 135 146 149 154 159 157 155 159 159 170 177 178 187 192 218 243 258 267 273 284 292 300 302
134 200 218 197 152 225 230 194 202 225 235 191 192 193 192 133 133 137 139 145 140 151 152 160 159 141 141 138 158 156 166 165 164 177 176 177 172 197 217 227 236 262 273 283 288 291 293 296 300
170 190 216 202 192 179 195 196 202 185 216 231 210 86 127 140 151 160 165 164 161 162 169 171 169 163 145 147 129 128 152 143 170 161 182 179 190 208 240 259 275 285 287 290 293 301 311 323 313
196 224 166 256 217 206 195 283 263 160 203 243 213 163 156 154 166 177 177 173 168 162 162 170 175 159 144 130 136 112 126 141 162 179 183 190 208 247 277 279 285 305 301 299 321 327 310 316 320
196 190 213 215 242 73 185 302 297 222 232 219 246 183 160 167 179 183 177 166 154 167 163 159 158 152 152 129 160 170 159 158 178 184 188 189 222 250 258 263 279 283 290 307 310 298 314 317 329
186 293 179 246 273 292 309 275 266 253 257 288 288 186 182 181 171 165 175 158 141 154 156 170 164 165 160 141 162 130 159 176 183 188 188 191 226 245 270 285 291 282 291 272 283 325 355 13 3
166 186 254 258 245 262 245 258 204 265 225 247 283 137 179 158 158 152 149 156 141 146 148 158 159 150 135 132 144 153 147 193 226 210 218 222 233 255 271 289 300 309 289 273 171 89 55 36 9
295 188 214 236 242 234 169 267 236 236 306 297 287 111 117 137 162 167 167 159 141 139 140 143 149 149 155 153 147 154 179 181 204 224 220 223 225 240 270 285 283 124 37 64 64 63 48 39 10
172 158 164 228 210 234 175 248 253 225 196 247 265 153 134 124 127 133 154 149 141 139 141 142 151 142 147 146 153 157 169 193 207 209 215 219 219 216 247 211 173 72 56 51 52 38 37 17 10
268 171 170 251 206 200 191 233 201 224 190 223 248 159 146 126 107 122 129 129 140 145 142 139 141 149 133 119 137 210 201 175 214 187 237 220 209 198 183 133 110 72 73 52 71 54 53 18 357
201 167 198 213 199 203 211 254 311 228 178 205 230 160 155 142 137 118 119 122 127 136 131 116 115 122 118 110 113 98 74 22 226 223 255 255 220 183 141 117 93 68 97 59 50 71 36 36 346
11 179 155 228 230 159 174 201 248 232 223 226 230 155 158 150 153 131 127 129 129 139 134 132 129 132 122 110 104 82 46 12 355 237 232 197 199 139 92 85 90 44 47 46 61 76 46 18 354
271 355 296 209 182 145 175 193 236 174 230 201 195 156 154 139 155 151 151 151 157 162 154 146 143 146 138 144 139 131 149 99 84 2 18 55 60 67 68 79 84 156 84 65 58 85 94 38 18
238 209 252 215 138 163 142 180 192 216 260 263 251 143 163 164 166 169 167 171 165 171 166 170 174 174 168 165 142 148 157 110 260 89 30 31 95 95 129 133 144 94 144 101 116 81 96 75 38
219 206 224 285 102 171 151 225 255 198 201 251 232 195 166 176 179 173 173 185 182 194 190 179 167 188 187 200 162 159 170 146 151 104 132 122 106 137 178 127 138 156 153 131 105 106 74 80 51
226 224 200 225 233 111 281 99 241 132 207 225 228 220 196 175 178 178 188 192 189 211 217 133 136 166 158 143 147 157 138 96 99 103 158 117 146 119 79 112 182 143 115 85 82 61 71 71 98
168 182 44 54 83 50 230 130 254 198 198 184 261 193 199 181 166 163 154 147 172 132 117 119 140 162 174 182 151 147 154 128 126 129 117 119 93 47 243 196 148 91 78 79 67 67 74 66 67
102 96 78 53 84 204 275 97 230 222 198 177 202 209 192 177 170 172 174 168 165 157 159 169 177 187 166 139 129 138 136 138 129 125 123 143 123 214 229 150 89 80 85 70 86 71 61 52 50
172 166 157 166 165 188 92 217 258 253 223 184 201 222 146 173 189 200 164 142 154 159 166 175 196 173 177 159 125 129 132 131 135 143 148 164 140 204 204 102 90 80 85 91 72 68 61 59 48
194 204 164 110 346 96 199 297 316 352 74 109 160 164 180 176 184 165 137 157 164 166 179 167 150 123 139 152 132 131 135 148 150 145 151 152 173 169 101 89 93 93 80 75 75 71 62 49 9
149 160 139 357 140 161 72 209 230 23 308 150 172 199 207 177 164 146 161 171 168 164 142 127 132 132 127 128 135 137 144 149 135 145 143 141 116 110 110 106 101 86 79 80 86 74 54 38 13
87 38 58 111 98 141 124 254 223 267 272 285 268 212 195 195 191 163 164 160 140 129 125 114 120 134 132 126 135 132 131 133 130 122 118 119 108 107 100 96 103 94 84 77 73 66 39 21 1
167 179 151 119 238 67 118 268 118 261 311 257 275 264 259 216 154 142 144 145 146 147 150 148 142 134 130 128 131 136 127 139 126 115 106 107 101 98 114 119 106 93 89 73 71 58 32 12 354